Regional Weather Roundup
Issued by NWS Sioux Falls, SD

Home | Current Version | Previous Version | Text Only | Print | Product List | Glossary On
Versions: 1 2 3 4 5 6 7 8 9 10 11 12 13 14 15 16 17 18 19 20 21 22 23 24 25 26 27 28 29 30 31 32 33 34 35 36 37 38 39 40 41 42 43 44 45 46 47 48 49 50
000
ASUS43 KFSD 040210
RWRFSD

WEATHER ROUNDUP FOR SE SOUTH DAKOTA/SW MINNESOTA/NW IOWA
NATIONAL WEATHER SERVICE SIOUX FALLS SD
900 PM CDT FRI JUL 03 2015

NOTE: "FAIR" INDICATES FEW OR NO CLOUDS BELOW 12,000 FEET WITH NO
SIGNIFICANT WEATHER AND OR OBSTRUCTIONS TO VISIBILITY.


SDZ038>040-050-052>070-040300-
SOUTHEAST SOUTH DAKOTA

CITY           SKY/WX    TMP DP  RH WIND       PRES   REMARKS
BROOKINGS      PTCLDY    75  64  69 SW5       29.95S
CHAMBERLAIN    CLEAR     73  67  83 SE5       29.92F
HURON          PTCLDY    76  67  73 S6        29.91S
MADISON        FAIR      72  68  88 SW6       29.95S
MITCHELL       CLEAR     74  67  78 SE6       29.93F
SIOUX FALLS    CLOUDY    74  63  68 CALM      29.94F
WINNER         FAIR      77  61  57 SE8       29.93S
YANKTON        CLEAR     73  64  73 CALM      29.93S
$$

MNZ071-072-080-081-089-090-097-098-040300-
SOUTHWEST MINNESOTA

CITY           SKY/WX    TMP DP  RH WIND       PRES   REMARKS
FAIRMONT       CLEAR     72  54  53 CALM      29.93S
JACKSON        PTCLDY    72  61  68 SW5       29.95F
LUVERNE        PTCLDY    72  64  78 SW3       29.95F
MARSHALL       MOCLDY    75  64  69 S5        29.90S
MONTEVIDEO     MOCLDY    75  66  73 CALM      29.91S
PIPESTONE      PTCLDY    72  64  78 SW5       29.95S
REDWOOD FALLS  PTCLDY    74  64  71 S5        29.90F
TRACY          PTCLDY    74  67  77 SW3       29.92S
WINDOM         PTCLDY    73  61  64 CALM      29.94S
WORTHINGTON    PTCLDY    70  59  68 SW6       29.95S
$$

IAZ001>003-012>014-020>022-031-032-NEZ013-014-SDZ071-040300-
NORTHWEST IOWA

CITY           SKY/WX    TMP DP  RH WIND       PRES   REMARKS
CHEROKEE       CLEAR     67  62  84 CALM      29.96S
DENISON        CLEAR     68  63  83 CALM      29.95S
ESTHERVILLE    CLEAR     67  60  78 SW6       29.94F
LE MARS        CLEAR     70  63  78 CALM      29.96S
ORANGE CITY    CLEAR     70  61  73 CALM      29.96S
SHELDON        PTCLDY    68  64  88 S5        29.94F
SIOUX CITY     CLEAR     72  63  73 S3        29.95S
SPENCER        PTCLDY    68  60  75 SW7       29.95F
STORM LAKE     CLEAR     70  57  64 W5        29.98R
$$

ABBREVIATIONS USED IN REMARKS
   TC - TEMPERATURE IN CELSIUS
  WCI - WIND CHILL INDEX
   HX - HEAT INDEX
  VSB - VISIBILITY



USA.gov is the U.S. government's official web portal to all federal, state and local government web resources and services.